Location: Dappach
(48.9767°N, 9.6998°E)
Time: 21:36:35
(UTC+00:00)

Genesis I - Pass Details

Date: 12 August 2024
Orbit: 412 x 456 km, 64.5° (Epoch: 12 September)

Event Time Altitude Azimuth Distance (km) Brightness Sun altitude
Exits shadow 02:12:00 33° 181° (S) 772 3.7 -16.4°
Maximum altitude 02:13:13 51° 124° (SE) 569 3.4 -16.3°
Drops below altitude 10° 02:16:39 10° 48° (NE) 1,591 7.0 -15.9°
Sets 02:18:50 0° 43° (NE) 2,480 8.6 -15.6°
